Regional Weather Roundup
Issued by NWS

Home | Current Version | Previous Version | Text Only | Print | Product List | Glossary Off
Versions: 1 2 3 4 5 6 7 8 9 10 11 12 13 14 15 16 17 18 19 20 21 22 23 24 25 26 27 28 29 30 31 32 33 34 35 36 37 38 39 40 41 42 43 44 45 46 47 48 49 50

000
ASUS43 KMPX 251710
RWRMN
WEATHER ROUNDUP FOR MINNESOTA
NATIONAL WEATHER SERVICE TWIN CITIES/CHANHASSEN MN
1100 AM CST SAT FEB 25 2017


NOTE: "FAIR" INDICATES FEW OR NO CLOUDS BELOW 12,000 FEET WITH NO
SIGNIFICANT WEATHER AND/OR OBSTRUCTIONS TO VISIBILITY. N/A MEANS
CURRENT SKY AND/OR WEATHER CONDITIONS ARE NOT AVAILABLE.

MNZ060>063-068>070-251800-
   Twin Cities Metro

CITY           SKY/WX    TMP DP  RH WIND       PRES   REMARKS
TWIN CITIES    SUNNY     26   3  37 NW16G23   29.94F WCI  14
ST PAUL        SUNNY     25   5  42 NW14      29.95F WCI  13
CRYSTAL        SUNNY     25   3  38 NW12      29.94S WCI  14
BLAINE         SUNNY     25   5  42 NW16      29.92F WCI  12
LAKEVILLE      SUNNY     21   9  58 NW13      29.94S WCI   9
EDEN PRAIRIE   SUNNY     25   4  40 NW15G23   29.94S WCI  13
SOUTH ST PAUL  SUNNY     26   4  39 NW10      29.94F WCI  15
LAKE ELMO      FAIR      25   7  46 NW13G20   29.93F WCI  13
$$
MNZ001>005-007-008-013>017-022>024-027-028-251800-
   Northwest Minnesota

CITY           SKY/WX    TMP DP  RH WIND       PRES   REMARKS
BEMIDJI        SUNNY     19  10  66 S6        29.82F WCI  11
HALLOCK        CLOUDY    23  19  86 NW10      29.82F WCI  12
ROSEAU         CLOUDY    18  12  79 S8        29.80F WCI   7
WARROAD        LGT SNOW  18  12  79 S3        29.81F
THIEF RVR FALL   N/A    N/A N/A N/A MISG        N/A
CROOKSTON      PTSUNNY   28  21  74 W12       29.84F WCI  18
FOSSTON        FLURRIES  23  16  74 SW15      29.83F WCI  10
DETROIT LAKES  MOSUNNY   27  19  74 W8        29.86F WCI  18
MOORHEAD       LGT RAIN  27  19  74 SW12      29.88F WCI  16
PARK RAPIDS    FLURRIES  20  11  68 SW9       29.84F WCI   9
MAHNOMEN       PTSUNNY   24  17  74 SW15      29.84F WCI  11
$$
MNZ006-009>011-018-025>026-251800-
   North Central Minnesota

CITY           SKY/WX    TMP DP  RH WIND       PRES   REMARKS
BAUDETTE       LGT SNOW  15   8  73 S3        29.80F
FLAG ISLAND    LGT SNOW  12   7  79 S8        29.80F WCI   1
INTL FALLS     CLOUDY    15   1  53 W8        29.81F WCI   4
WASKISH        LGT SNOW  14  10  85 W5        29.83F WCI   6
BIG FORK       CLOUDY    18   1  49 CALM      29.82F
LONGVILLE      CLOUDY    18   5  57 W5        29.85F WCI  11
GRAND RAPIDS   CLOUDY    21   7  54 W5        29.86F WCI  15
CRANE LAKE     SUNNY     14  -2  48 NW8       29.82F WCI   3
ORR            SUNNY     14  -2  48 W7        29.78F WCI   4
COOK           SUNNY     14   0  52 W7        29.81F WCI   4
WALKER         FAIR      20   9  62 SW9       29.83F WCI   9
$$
MNZ012-019>021-037-251800-
   Northeast Minnesota

CITY           SKY/WX    TMP DP  RH WIND       PRES   REMARKS
DULUTH         SUNNY     16   5  62 NW17      29.79S WCI   0
ELY            SUNNY     16   0  48 W10G17    29.76F WCI   3
HIBBING        MOSUNNY   14   1  56 NW15      29.82F WCI  -1
EVELETH        SUNNY     15  -7  37 NW9G18    29.81F WCI   3
DULUTH HARBOR  SUNNY     19   7  58 NW12G17   29.87F WCI   7
TWO HARBORS    SUNNY     21   7  53 NW12G17   29.77S WCI   9
SILVER BAY     SUNNY     19   3  49 NW9       29.74R WCI   9
GRAND MARAIS     N/A     20   6  55 NW22G39   29.69R WCI   3
G MARAIS ARPRT SUNNY     12   1  62 NW17G29   29.64S WCI  -5
$$
MNZ029>031-032-039>041-046>048-054>057-064-251800-
   West Central Minnesota

CITY           SKY/WX    TMP DP  RH WIND       PRES   REMARKS
FERGUS FALLS   MOSUNNY   25  16  68 SW10      29.94F WCI  15
WHEATON        PTSUNNY   28  19  69 SW9       29.94F WCI  20
MORRIS         CLOUDY    27  16  63 SW10      29.92F WCI  17
ALEXANDRIA     CLOUDY    25  14  63 W12       29.90F WCI  14
ELBOW LAKE     CLOUDY    25  15  67 SW13      29.92F WCI  13
WADENA         MIX PCPN  21  14  73 W12       29.87F WCI   9
GLENWOOD       MOSUNNY   25  14  63 W12       29.92F WCI  14
APPLETON       MOSUNNY   28  16  59 SW7       29.95F WCI  21
BENSON         CLOUDY    27  10  50 W7        29.96F WCI  19
ORTONVILLE     SUNNY     30  18  59 CALM      29.93F
MADISON        SUNNY     34  19  55 SW5       29.95F WCI  30
WILLMAR        PTSUNNY   27  18  69 W10       29.96F WCI  17
$$
MNZ033>034-036-042>043-049>051-058-059-251800-
   Central Minnesota

CITY           SKY/WX    TMP DP  RH WIND       PRES   REMARKS
ST CLOUD       CLOUDY    25  10  53 NW10      29.92F WCI  15
SAUK CENTRE      N/A     25  12  59 W10       29.92F WCI  14
PAYNESVILLE    CLOUDY    25  14  61 W8        29.94F WCI  16
AITKIN         CLOUDY    21   3  45 W7        29.87S WCI  13
PINE RIVER     PTSUNNY   19  10  68 S5        29.90F WCI  13
BRAINERD       PTSUNNY   19   7  59 NW8       29.89F WCI   9
STAPLES        CLOUDY    21  10  63 SW6       29.89F WCI  14
LONG PRAIRIE   CLOUDY    23  10  58 SW9       29.91F WCI  13
LITTLE FALLS   PTSUNNY   23  10  58 W3        29.92F
LITCHFIELD     PTSUNNY   27  12  54 W8        29.95F WCI  18
BUFFALO        SUNNY     25   9  49 W10       29.96S WCI  15
MAPLE LAKE     SUNNY     26  12  54 W8        29.95F WCI  18
HUTCHINSON     SUNNY     27  14  59 W9        29.97F WCI  18
$$
MNZ037-044-045-052-053-251800-
   East Central Minnesota

CITY           SKY/WX    TMP DP  RH WIND       PRES   REMARKS
PRINCETON      PTSUNNY   25   9  50 W14       29.92F WCI  13
MORA           SUNNY     23   5  46 NW9       29.92F WCI  13
CAMBRIDGE      SUNNY     25   9  50 W12       29.91S WCI  14
RUSH CITY      SUNNY     23   5  46 NW10G17   29.91S WCI  12
MOOSE LAKE     MOSUNNY   19   3  49 W10       29.86S WCI   8
HINCKLEY       FAIR      23   5  46 NW10      29.89F WCI  12
CLOQUET        SUNNY     16   1  53 NW12G18   29.83S WCI   3
MCGREGOR       PTSUNNY   19   7  58 NW10      29.88S WCI   8
$$
MNZ071>073-080-081-089-090-097-098-251800-
   Southwest Minnesota

CITY           SKY/WX    TMP DP  RH WIND       PRES   REMARKS
MONTEVIDEO     MOSUNNY   28  18  64 W6        29.98F WCI  22
GRANITE FALLS  PTSUNNY   28  16  62 SW7       29.99F WCI  20
CANBY          PTSUNNY   32  17  55 W12       29.97F WCI  23
MARSHALL       CLOUDY    32  18  56 W7        29.97F WCI  26
REDWOOD FALLS  MOSUNNY   27  11  51 W8        29.98F WCI  19
OLIVIA         SUNNY     28  18  64 W8        29.96F WCI  20
PIPESTONE      MOSUNNY   27  16  63 W9        29.97F WCI  17
WINDOM         SUNNY     25  12  58 W8        29.98F WCI  16
WORTHINGTON    PTSUNNY   22  15  75 W13       29.99F WCI  10
JACKSON        SUNNY     21  12  68 W9        30.00S WCI  11
TRACY          SUNNY     29  18  63 W6        29.97F WCI  23
SLAYTON        SUNNY     26  17  71 W8        29.98F WCI  17
$$
MNZ065>067-074>077-082>085-091>093-251800-
   South Central Minnesota

CITY           SKY/WX    TMP DP  RH WIND       PRES   REMARKS
MANKATO          N/A     25  12  58 NW13      29.98S WCI  14
NEW ULM        SUNNY     25  10  54 NW10      29.98F WCI  15
ST JAMES       SUNNY     25  16  68 NW8       30.01S WCI  16
FAIRMONT       SUNNY     24  13  62 W13       30.01R WCI  12
GLENCOE        SUNNY     27  16  62 NW9       29.95F WCI  18
FARIBAULT      SUNNY     25   9  50 NW13      29.96R WCI  13
OWATONNA       SUNNY     21   7  53 W12       29.95S WCI   9
WASECA         SUNNY     23  12  63 NW9       29.98S WCI  13
ALBERT LEA     SUNNY     19  10  68 W10       29.97R WCI   8
$$
MNZ078>079-086>088-094>096-251800-
   Southeast Minnesota

CITY           SKY/WX    TMP DP  RH WIND       PRES   REMARKS
ROCHESTER      SUNNY     17   7  64 NW20      29.93R WCI   1
RED WING       SUNNY     21   1  42 NW9       29.93S WCI  11
STANTON        SUNNY     23   6  48 NW14      29.94S WCI  11
WINONA           N/A     21   9  58 NW10      29.94R WCI  10
AUSTIN         SUNNY     18   9  68 NW15      29.95R WCI   3
PRESTON        SUNNY     16   5  62 NW16G22   29.93R WCI   0
$$
ABBREVIATIONS USED IN REMARKS
   TC - TEMPERATURES IN CELSIUS
  WCI - WIND CHILL INDEX
   HX - HEAT INDEX
  VSB - VISIBILITY
$$




USA.gov is the U.S. government's official web portal to all federal, state and local government web resources and services.